EHI
0 0 0 0 0 0 0 0 0 0 0 0 0 0 0 1 1 1 0 1 2 3 3 2 3 3 3 3 3 3 3 3 2 2 3 3 3 3 3 3 2 1 0 0
0 0 0 0 0 0 0 0 0 0 0 0 0 0 0 0 0 0 0 1 2 3 3 3 3 3 3 3 3 3 3 3 1 1 2 3 3 3 2 2 2 2 2 1
0 0 0 0 0 0 0 0 0 0 0 0 0 0 0 0 0 0 0 0 1 3 4 4 4 3 3 3 3 3 3 2 1 1 1 2 2 2 2 2 3 3 3 3
0 0 0 0 0 0 0 0 0 0 0 0 0 0 0 0 0 0 1 1 1 2 4 5 4 3 3 3 3 3 3 1 1 2 2 3 3 3 3 3 3 3 4 4
0 0 0 0 0 0 0 0 0 0 0 0 0 0 0 0 0 0 0 1 1 2 4 5 5 4 3 3 3 3 3 1 1 2 3 3 3 4 4 4 3 3 3 3
0 0 0 0 0 0 0 0 0 0 0 0 0 0 0 0 0 0 0 0 1 2 3 5 7 6 4 3 4 3 3 3 2 3 3 3 4 4 5 4 3 3 3 3
0 0 0 0 0 0 0 0 0 0 0 0 0 0 0 0 0 0 0 0 1 2 3 5 7 7 6 5 5 4 4 4 4 4 3 4 5 6 6 5 5 4 4 4
0 0 0 0 0 0 0 0 0 0 0 0 0 0 0 0 0 0 0 0 1 3 5 6 6 8 8 7 7 6 4 5 5 4 3 4 7 7 7 7 7 8 7 6
0 0 0 0 0 0 0 0 0 0 0 0 0 0 0 0 0 0 0 0 0 3 5 6 5 7 8 7 7 6 5 5 5 3 3 4 6 9 9 8 9 10 10 8
0 0 0 0 0 0 0 0 0 0 0 0 0 0 0 0 0 1 1 1 1 2 4 5 4 5 6 6 6 6 6 6 5 4 3 3 6 9 10 9 9 9 9 9
0 0 0 0 0 0 0 0 0 0 0 0 0 0 0 0 0 1 2 1 1 3 5 5 5 6 6 8 9 8 7 7 7 6 4 4 6 10 11 9 8 7 8 9
0 0 0 0 0 0 0 0 0 0 0 0 0 0 0 1 1 1 2 2 2 2 4 6 8 8 9 11 13 12 10 9 10 9 8 6 8 12 13 11 8 7 6 7
0 0 0 0 0 0 0 0 0 0 0 0 0 0 1 2 3 3 4 5 4 2 4 6 7 8 9 13 17 17 14 13 13 13 11 9 9 11 13 12 10 8 7 7
0 0 0 0 0 0 0 0 0 0 0 0 0 0 1 2 4 5 7 9 7 5 5 5 5 5 7 12 18 20 19 16 15 14 14 12 10 10 11 11 10 9 8 8
0 0 0 0 0 0 0 0 0 0 0 0 0 0 1 2 4 5 8 10 10 7 5 4 3 3 6 11 15 20 21 19 16 15 15 14 12 11 11 10 9 8 8 7
0 0 0 0 0 0 0 0 1 1 1 0 0 0 1 2 4 5 7 9 9 7 6 4 3 3 6 9 12 18 21 19 16 15 15 14 14 13 11 8 7 7 7 6
0 0 0 0 0 0 1 1 2 2 2 1 1 1 1 2 3 3 5 7 7 6 5 4 3 4 5 7 11 15 18 17 15 13 13 14 14 13 11 8 6 7 7 6
0 0 0 0 0 0 0 1 2 3 3 3 2 2 2 2 2 2 3 4 4 4 4 5 5 5 5 7 10 13 15 15 13 11 11 12 12 10 8 6 6 6 7 6
0 0 0 0 0 0 0 0 1 1 2 3 3 3 2 2 1 1 2 3 3 3 5 6 6 5 5 9 12 13 13 13 12 11 10 10 10 7 4 4 5 6 6 6
0 0 0 0 0 0 0 0 0 0 1 2 3 3 3 2 1 2 3 4 4 5 6 6 5 4 5 9 12 13 13 13 13 12 10 9 8 5 3 3 4 5 6 7
0 0 0 0 0 0 0 0 0 0 1 2 3 4 4 3 2 3 6 7 6 6 6 6 5 4 5 8 11 13 13 13 13 12 10 9 8 6 4 4 4 5 6 7
0 0 0 0 0 0 0 0 1 1 1 3 4 4 5 4 4 6 8 9 7 6 6 6 5 4 4 6 9 11 11 11 12 12 10 8 8 7 6 6 6 6 7 7
0 0 0 0 0 0 0 0 0 1 2 3 4 5 6 6 7 8 9 9 7 6 6 5 4 3 2 4 6 8 8 9 11 11 9 8 8 7 7 8 8 8 8 9
0 0 0 0 0 0 0 0 0 0 1 2 3 5 7 8 8 9 9 8 7 5 5 4 3 3 3 4 6 6 7 8 9 9 8 8 7 6 6 7 8 8 8 10
0 0 0 0 0 0 0 0 0 0 0 1 3 4 6 7 7 7 7 6 4 2 2 2 3 3 5 6 6 6 7 7 7 6 6 6 6 5 4 4 4 4 5 7
0 0 0 0 0 0 0 0 0 0 0 1 2 3 3 4 5 5 5 4 2 1 0 1 2 3 5 7 6 5 6 7 6 4 4 5 6 5 4 3 2 1 2 3
Wind_Speed
2 3 3 6 6 4 3 2 3 3 2 2 3 4 5 5 5 5 5 5 6 7 5 4 5 5 4 3 3 4 3 2 2 1 1 1 1 1 0 1 1 1 1 2
3 3 6 3 3 3 3 2 2 3 1 2 1 4 4 5 7 7 8 7 7 5 4 5 5 5 5 5 5 4 4 3 3 2 2 2 1 1 1 1 0 1 2 2
5 5 2 3 3 2 2 5 4 3 2 3 2 5 3 2 3 3 4 5 6 7 7 7 7 7 6 6 6 6 5 4 3 3 2 1 1 1 1 0 0 1 2 2
4 4 1 2 3 4 4 5 5 3 2 2 1 2 6 3 3 3 5 5 7 7 6 7 7 7 8 7 6 5 5 4 4 4 3 3 2 2 2 1 1 0 0 1
4 2 2 3 5 6 5 1 3 3 3 1 2 1 7 2 4 7 7 7 7 7 7 9 9 9 7 6 6 5 4 4 4 4 5 4 3 2 1 0 1 0 0 0
4 2 3 4 2 4 4 6 6 6 5 1 3 3 6 4 6 6 6 7 7 6 6 7 7 6 5 5 5 5 5 4 4 4 4 5 4 3 2 1 1 1 1 0
4 3 2 2 2 2 5 6 4 5 4 5 2 2 8 7 6 7 7 7 7 6 6 6 7 7 6 7 6 6 6 5 4 4 4 5 5 4 4 3 3 2 1 2
1 5 3 1 4 5 4 8 7 5 4 5 1 4 8 5 4 5 5 5 4 5 6 7 8 8 7 8 7 7 6 5 5 5 4 4 4 3 3 3 3 3 3 3
5 5 4 1 2 7 5 3 5 7 2 1 4 6 8 3 3 3 3 3 4 5 7 7 7 7 7 7 7 7 7 5 5 5 4 4 4 3 3 3 3 2 2 3
7 3 4 3 4 4 5 7 6 6 4 2 4 4 5 6 6 5 4 4 4 4 5 5 6 6 6 6 6 6 6 6 5 5 5 4 4 4 3 2 3 2 3 2
4 4 3 3 1 2 3 4 5 4 5 5 3 7 5 6 5 5 5 4 4 4 5 5 5 5 5 5 5 6 6 5 4 4 4 4 4 3 3 3 3 2 2 3
3 5 2 4 3 1 4 5 7 5 3 4 3 8 4 4 4 3 4 3 3 3 4 4 5 5 5 5 5 6 6 6 6 5 4 4 4 3 3 3 3 2 2 2
5 6 2 5 5 3 2 2 4 6 5 4 4 8 3 2 3 2 3 3 2 2 2 2 3 4 5 5 5 6 6 6 5 5 4 4 4 4 4 3 3 3 3 3
7 5 6 8 6 3 1 2 4 6 4 4 6 7 6 5 4 4 3 3 2 1 1 1 2 3 4 4 5 5 6 5 5 5 5 5 5 5 5 4 3 3 3 3
5 4 3 3 2 2 2 2 4 4 6 7 7 6 8 6 5 4 3 2 1 1 1 1 2 3 3 3 4 4 5 5 5 5 5 6 5 4 3 3 3 3 3 4
4 3 2 1 1 1 1 0 2 2 3 4 3 6 5 4 2 2 2 2 2 2 2 2 2 2 3 3 4 4 4 4 5 5 5 4 3 3 3 3 3 3 3 3
2 5 4 1 1 2 2 2 3 2 2 3 4 5 3 3 3 3 3 3 3 3 2 3 2 2 2 2 3 4 4 4 4 5 4 4 4 4 4 4 3 3 3 3
6 5 4 2 2 3 6 2 2 3 1 1 2 3 3 4 3 2 2 3 3 3 3 3 2 2 1 1 1 1 2 3 3 4 3 4 4 4 4 4 4 4 3 3
4 7 5 3 2 3 4 2 2 3 2 1 2 3 3 2 2 3 2 2 3 3 2 2 2 1 0 1 2 2 2 3 3 3 3 3 4 4 4 4 4 4 3 3
5 5 6 4 3 5 6 3 1 3 3 3 1 2 2 1 1 4 3 2 1 1 1 1 1 1 1 0 2 3 2 3 3 3 3 3 3 4 4 5 4 3 3 4
3 4 3 4 3 6 5 3 2 3 6 3 2 2 1 2 4 4 2 1 1 1 1 1 1 1 0 1 2 2 2 3 3 2 2 2 2 3 3 3 2 2 2 2
4 3 3 4 3 6 3 2 4 5 3 1 1 1 1 2 2 1 1 2 1 1 1 1 1 1 1 1 2 2 2 2 1 2 2 2 1 1 1 2 2 2 3 2
3 5 5 6 6 5 2 3 2 2 1 2 1 1 1 1 1 1 2 2 2 2 1 1 1 0 1 0 2 3 2 1 1 2 2 2 2 2 2 2 2 2 2 2
2 2 3 2 4 4 3 2 1 1 2 2 1 2 2 1 1 1 1 1 2 2 2 1 0 0 1 1 1 2 1 0 1 1 1 2 2 2 1 1 2 2 3 3
3 2 1 2 4 3 3 2 2 1 1 0 0 1 2 2 1 1 1 2 1 2 1 1 1 1 2 1 1 0 1 1 1 1 1 1 1 2 2 2 2 3 3 4
4 5 5 6 6 4 5 3 1 1 1 1 0 0 0 2 2 1 1 1 1 1 1 1 1 1 2 1 1 1 2 2 2 1 2 2 2 2 2 2 2 2 3 3
Wind_Direction
85 85 204 212 196 193 172 176 248 258 216 149 222 254 243 195 194 202 203 202 210 221 214 188 184 176 164 166 163 168 168 171 156 143 147 164 216 251 275 244 231 206 190 181
43 259 233 206 176 149 151 172 250 301 90 149 258 285 256 201 207 207 206 211 214 215 196 187 182 179 181 184 183 180 182 175 179 180 168 164 155 180 213 248 243 208 188 178
196 244 199 152 155 155 203 191 205 214 19 43 54 331 299 262 224 220 222 218 215 209 204 198 190 190 189 193 192 192 188 179 179 172 133 98 79 47 30 309 269 245 196 176
234 257 169 156 201 168 246 223 183 162 100 315 79 288 292 274 269 240 236 227 223 216 201 194 191 193 197 200 191 187 184 180 176 164 157 160 169 199 223 219 225 265 183 167
248 219 174 210 221 176 216 149 121 116 122 32 6 166 288 324 270 258 240 230 224 212 203 195 195 196 196 188 183 184 179 182 178 174 174 170 185 206 211 172 146 184 139 149
242 242 201 216 221 160 137 69 53 50 71 349 243 174 278 243 234 253 244 233 225 213 205 196 190 181 182 177 179 175 175 189 187 183 182 181 184 183 171 181 191 208 202 206
318 308 272 176 91 41 95 89 36 4 11 257 252 185 251 248 233 232 237 232 224 209 200 190 183 185 186 183 182 175 178 190 190 186 190 192 188 183 189 196 199 199 205 213
204 291 271 188 172 177 166 141 155 188 221 273 312 233 254 261 254 246 241 237 223 203 198 195 194 192 193 190 183 176 180 193 192 191 198 197 192 192 199 197 194 199 209 214
177 251 286 264 178 139 133 152 158 133 156 282 286 289 301 316 322 294 269 251 235 212 199 196 191 187 187 185 185 183 182 189 194 194 192 192 193 200 204 198 199 208 213 208
159 217 291 308 65 38 128 140 101 116 145 242 290 281 269 294 293 296 287 263 251 227 209 198 190 188 190 189 185 181 185 191 194 195 195 194 195 200 202 201 211 214 216 212
136 160 307 21 124 187 92 89 102 113 145 158 241 268 234 233 246 258 265 261 244 217 206 200 197 185 181 182 180 184 189 186 186 193 194 190 191 194 189 203 222 221 215 203
140 125 234 266 267 200 145 156 143 147 201 168 180 264 273 242 253 253 267 274 258 223 208 198 190 176 171 180 188 194 196 194 195 191 190 197 193 182 187 208 219 209 202 194
131 114 91 340 339 2 83 122 132 122 115 147 172 263 306 341 320 302 285 300 297 261 223 193 174 179 186 191 192 197 202 201 194 183 186 196 194 188 196 213 217 206 204 199
113 110 160 193 216 207 175 146 137 122 139 190 221 256 298 313 306 301 299 306 326 309 249 195 190 194 196 194 193 194 202 197 188 183 187 199 203 201 201 202 211 211 207 205
102 135 189 222 223 165 176 172 162 165 178 185 231 236 261 268 263 270 283 300 345 335 310 238 219 217 206 194 195 197 200 194 189 187 197 207 205 200 200 200 210 215 216 216
77 132 130 335 11 128 106 303 173 192 184 210 246 262 271 286 284 288 288 280 264 259 271 262 242 231 224 208 201 196 200 200 185 192 205 199 189 188 197 202 202 207 216 216
97 121 115 242 315 57 292 254 206 186 192 182 218 255 305 315 294 265 258 250 254 249 258 269 264 229 227 223 208 203 201 189 188 199 199 189 185 188 197 200 202 210 217 212
133 115 121 136 92 213 241 255 187 164 202 210 251 284 282 264 271 271 259 239 252 259 261 253 250 252 240 180 181 175 158 171 186 195 194 189 186 195 194 193 208 217 211 211
132 130 117 123 167 265 291 276 181 172 257 247 265 307 321 315 357 321 295 247 241 257 262 254 252 244 194 135 165 153 156 161 164 184 199 200 190 197 196 204 217 219 210 214
58 88 112 126 154 222 244 277 245 126 273 274 241 276 293 46 1 281 301 313 301 319 335 336 345 46 68 53 128 144 171 172 188 200 203 200 196 200 206 214 216 211 208 219
47 53 107 147 192 253 260 296 87 151 246 274 231 241 210 199 227 261 298 319 290 284 312 22 47 36 315 158 127 148 192 214 221 204 184 185 194 210 207 209 212 205 206 212
159 141 163 143 170 252 288 104 163 216 250 250 225 224 220 256 283 317 334 326 318 324 334 18 53 348 318 149 144 164 228 253 222 171 162 180 196 221 206 190 202 190 187 203
185 186 182 184 209 246 263 220 241 199 214 229 195 232 181 278 304 329 327 320 326 328 323 329 132 4 343 274 174 184 245 260 204 177 177 194 211 209 208 194 202 205 198 206
270 152 141 244 266 272 284 289 307 257 237 243 203 176 161 211 256 282 294 310 330 329 317 299 159 161 288 269 191 197 238 266 211 206 213 206 208 234 236 218 207 208 215 215
230 168 154 256 275 311 311 294 291 317 331 341 0 188 186 174 238 237 272 295 301 301 310 296 224 212 259 271 192 190 192 143 232 258 258 250 230 237 239 235 226 223 225 213
209 184 179 222 227 205 253 272 273 275 281 256 161 307 247 178 202 224 267 291 299 303 326 312 265 243 256 234 219 226 214 184 189 249 262 262 250 244 240 247 281 275 244 245